Theta_e
306 307 307 307 305 304 305 304 302 303 306 307 307 307 307 310 313 315 319 317 311 308 306 306 306 304 305 306 306 307 309 309 310 311 311 312 312 312 313 315 315 317 318 320 323 324 324 323 322 322 322 322 322 322 323 324 325 326 326 328 329 330 330 330 330 330 330 330 329 328 327 326 324 322
304 306 307 308 306 304 306 307 306 305 306 306 306 306 306 307 309 311 313 315 310 307 307 306 305 305 305 307 308 308 309 309 309 309 310 310 310 310 310 311 312 314 316 318 321 323 324 324 324 323 322 322 322 322 322 322 322 322 323 324 326 327 329 330 329 329 330 330 330 328 327 327 325 324
303 304 305 307 305 303 304 306 306 306 306 307 306 306 306 307 308 308 308 310 309 307 306 306 306 306 306 306 306 306 306 307 307 307 307 308 308 308 309 309 309 310 311 313 315 318 319 320 321 320 319 318 317 318 320 321 321 321 321 321 322 324 327 328 328 328 329 330 330 329 327 327 326 325
305 304 305 306 306 304 303 305 306 305 305 305 306 306 307 307 308 308 307 308 307 306 306 306 306 306 306 305 305 305 305 305 306 307 307 307 307 308 308 308 308 308 309 309 310 311 312 313 313 313 313 313 312 312 313 316 319 321 321 320 320 321 323 325 326 327 328 328 329 328 328 328 327 326
306 306 306 307 307 306 304 304 304 305 305 305 306 306 306 307 307 307 307 307 307 306 305 306 306 305 305 305 305 305 305 305 306 307 307 307 307 307 307 308 308 308 308 308 309 309 309 310 310 310 310 311 311 311 311 312 314 317 320 321 320 320 320 321 323 324 326 326 327 327 327 327 326 326
307 307 306 306 307 306 306 304 302 304 305 305 306 305 305 306 306 305 305 305 305 305 305 305 305 305 305 305 305 305 305 306 306 306 306 306 306 307 307 307 308 308 308 308 308 308 309 309 309 309 310 310 310 311 311 312 312 313 316 320 321 321 319 319 319 320 322 323 324 326 327 327 326 326
308 308 306 306 306 306 307 306 304 304 305 306 306 305 305 305 305 305 304 304 304 304 304 304 304 304 304 304 304 304 305 305 305 305 306 307 307 307 307 307 307 308 307 308 308 308 308 309 309 309 310 310 310 310 310 311 312 312 313 315 319 320 320 318 318 318 319 321 322 324 325 326 326 327
309 309 308 306 306 306 306 306 306 305 305 305 306 305 305 305 304 304 304 303 303 302 303 303 303 303 302 302 303 303 304 304 303 304 305 306 306 307 307 307 307 307 307 307 308 308 308 308 309 309 310 311 311 311 310 310 311 312 313 313 316 318 319 319 318 318 318 319 320 323 324 325 325 325
309 309 308 307 307 307 306 306 307 305 305 305 306 306 305 304 304 303 303 302 302 301 301 301 301 300 299 300 299 300 300 301 302 302 303 304 305 305 305 306 306 307 307 307 308 308 308 308 308 309 310 311 311 312 311 311 310 311 313 314 315 316 317 317 317 318 318 318 318 321 324 325 325 325
309 309 309 308 308 308 307 307 307 306 306 305 305 305 305 304 303 302 300 299 298 298 298 298 297 297 297 297 297 297 298 299 300 301 301 302 302 303 304 304 305 306 308 308 308 307 308 308 308 309 309 310 310 312 312 312 312 312 312 314 315 316 317 316 316 317 317 317 317 318 321 323 324 325
309 309 309 308 308 308 307 307 307 306 305 305 305 305 304 304 302 300 297 295 295 295 296 296 296 296 297 297 297 298 298 298 299 300 300 301 301 301 301 302 303 305 306 307 307 307 307 308 308 307 308 308 308 309 311 312 314 315 315 315 316 318 319 318 317 317 317 317 317 317 319 321 323 324
310 309 309 308 308 307 307 306 306 306 305 305 305 304 304 302 300 297 294 293 294 295 296 296 297 297 297 297 297 298 298 298 299 300 300 300 300 300 300 300 301 303 304 304 305 305 306 306 306 305 305 305 305 305 307 309 311 314 315 316 317 318 321 321 319 318 318 318 318 317 317 319 320 321
311 309 309 309 308 307 306 306 306 305 305 304 304 304 303 301 299 297 295 295 296 296 296 297 297 297 297 297 297 297 298 298 299 299 299 299 300 300 300 299 300 301 301 301 302 303 303 303 303 303 302 303 304 304 305 306 307 309 312 314 316 317 319 321 321 319 319 318 318 318 317 317 317 318
311 310 309 308 307 306 306 306 306 305 304 304 303 303 302 300 299 298 297 297 297 297 297 297 297 298 297 297 297 297 297 298 299 299 298 299 299 299 299 299 300 300 300 299 300 300 300 300 300 301 301 301 303 304 304 304 304 305 306 310 313 315 317 318 319 319 319 319 319 319 318 316 316 317
311 310 309 308 307 307 307 306 305 304 303 303 302 302 302 301 299 299 299 298 298 297 297 297 297 297 297 297 297 297 297 297 298 298 298 298 298 298 298 298 299 299 299 298 298 298 299 299 299 300 300 301 301 302 303 304 304 303 303 305 309 312 315 316 317 317 318 318 318 318 317 317 317 318
311 310 309 308 307 307 307 306 304 303 303 303 302 302 302 301 300 300 299 299 298 297 297 297 297 297 297 296 296 297 297 297 297 298 297 298 298 298 297 297 297 298 297 297 297 298 298 299 299 299 300 300 301 301 302 302 303 303 302 303 305 308 310 313 315 316 317 317 318 318 317 318 318 318
311 310 309 307 306 306 306 305 304 303 303 302 302 302 302 301 300 300 300 299 298 297 297 297 297 296 296 296 296 297 297 297 297 297 297 297 297 297 297 296 297 296 296 296 297 298 298 298 298 298 299 299 300 301 302 301 302 303 303 303 305 307 307 308 310 312 315 317 317 317 317 317 317 316
312 310 309 307 306 306 306 305 303 303 303 303 302 302 302 301 300 300 300 299 298 297 297 297 296 296 296 296 297 297 297 297 297 296 296 296 296 295 296 296 296 296 296 296 297 297 297 297 298 298 298 299 299 300 300 301 301 302 302 303 305 308 309 308 309 310 312 314 316 316 317 317 316 315
311 309 308 307 306 306 305 303 303 303 303 303 303 302 302 301 300 300 300 299 298 297 297 296 296 296 296 296 296 296 296 296 295 295 295 294 294 294 294 295 295 295 295 296 296 297 297 297 297 297 297 298 298 299 300 300 301 302 303 304 307 309 310 310 310 310 311 312 314 314 315 315 314 314
309 308 307 307 306 305 304 303 303 303 302 302 302 302 301 301 300 300 299 298 297 297 296 296 296 296 296 296 296 295 295 295 294 294 293 293 293 293 293 293 293 294 294 295 296 297 296 296 297 297 297 298 298 299 300 301 302 303 304 306 307 308 308 309 309 309 310 310 311 311 311 311 311 311
307 306 306 305 304 303 303 302 302 302 302 302 302 301 301 300 300 299 298 297 297 297 297 297 296 296 296 295 295 295 294 294 293 292 292 292 292 292 292 292 292 293 293 293 294 295 296 296 297 297 298 298 298 300 302 303 304 305 305 305 306 306 306 306 306 307 307 308 308 308 308 309 309 308
304 304 304 303 303 303 302 302 302 301 301 301 300 300 299 299 298 297 297 297 296 296 296 296 295 295 295 294 294 293 293 292 292 291 291 291 291 291 291 291 292 292 292 293 294 295 296 296 296 296 297 297 298 300 303 304 304 304 304 303 303 304 303 303 303 304 304 305 306 306 307 307 307 306
303 303 303 303 303 303 302 301 301 300 300 299 299 298 298 297 297 296 296 295 295 295 294 294 293 293 293 293 292 292 292 291 291 291 291 291 291 291 291 292 292 292 292 293 294 295 295 295 295 296 296 297 297 298 302 303 302 301 301 300 301 302 302 302 301 301 302 302 303 305 305 305 306 306
303 303 302 302 302 301 301 300 299 298 298 298 297 297 296 296 295 295 294 294 293 293 292 292 292 292 292 292 292 292 292 292 291 291 291 291 291 291 291 292 292 292 292 293 293 294 294 294 295 295 296 296 296 297 298 299 299 300 299 299 300 302 301 300 300 300 300 301 301 302 303 303 304 304
301 300 300 300 299 299 298 297 297 297 297 297 296 296 295 294 294 293 293 293 292 292 292 292 292 292 292 292 292 292 292 292 292 291 291 291 292 292 292 292 292 292 292 292 293 293 294 294 294 294 295 296 296 296 297 297 298 298 298 299 301 301 300 299 299 299 299 300 300 300 301 302 303 302
298 298 297 297 297 297 297 297 297 297 297 296 295 294 294 293 293 292 292 292 292 292 292 292 292 292 292 292 292 292 292 292 292 291 291 292 292 292 292 292 292 292 292 292 293 293 293 293 294 294 295 295 296 296 296 296 297 296 297 299 301 300 298 298 298 298 299 300 299 299 300 301 302 302
297 297 296 297 297 297 297 296 296 295 295 294 294 293 293 293 292 292 292 292 292 291 291 291 291 291 291 291 291 291 292 292 292 291 291 292 292 292 292 292 292 292 292 293 293 293 293 293 293 294 295 295 295 295 295 295 296 296 297 299 299 299 299 298 298 298 299 299 298 298 300 301 301 301
295 296 296 296 296 296 295 295 294 293 293 293 293 293 293 292 292 292 292 291 291 291 291 291 291 290 290 290 291 291 291 291 291 292 292 292 292 292 292 292 292 292 292 292 293 293 293 293 293 294 294 294 295 295 295 295 296 296 297 297 298 298 298 298 299 298 298 298 298 299 299 300 300 299
295 295 295 295 295 295 294 294 293 293 293 293 292 293 292 292 292 291 291 291 290 290 290 291 291 290 291 291 291 291 291 291 291 291 292 292 292 292 292 292 292 292 292 293 293 293 294 294 294 294 294 294 295 295 295 296 296 296 297 297 297 297 297 298 298 298 297 298 298 299 298 298 299 299
295 295 295 294 294 294 293 293 293 293 293 293 292 292 292 291 291 291 291 291 291 291 291 291 291 291 291 291 291 291 291 291 291 291 292 292 292 291 291 292 292 292 292 293 293 293 293 294 294 294 295 295 295 295 295 296 296 296 296 297 297 297 297 298 298 298 298 298 298 298 298 298 298 298
296 295 294 293 293 293 293 293 292 292 292 292 292 291 291 291 291 291 291 291 291 291 290 290 290 290 290 290 290 291 291 291 291 291 291 291 291 291 291 291 291 291 291 292 292 293 293 294 295 295 295 295 295 295 296 296 296 296 296 297 297 297 297 298 298 298 298 298 298 298 298 298 298 297
294 293 293 293 293 293 292 292 292 292 291 291 291 291 291 291 291 291 291 291 290 290 289 289 289 289 289 290 290 290 290 290 291 291 291 291 291 291 291 290 291 291 291 291 292 292 293 294 294 295 295 295 295 296 296 296 296 296 297 296 297 297 297 297 298 298 298 298 298 298 298 297 297 296
292 293 293 293 292 292 292 291 291 291 291 291 290 290 290 290 290 290 290 290 289 289 288 288 288 288 288 289 289 289 290 290 290 290 290 290 291 291 290 290 290 291 291 291 291 291 292 293 293 294 294 295 295 295 296 296 296 296 296 296 296 296 296 297 297 298 298 298 298 297 297 297 297 296
293 293 292 292 292 291 291 290 290 290 290 290 291 290 290 291 291 290 290 289 288 288 288 288 288 288 288 288 289 289 289 290 290 290 290 290 290 290 290 290 290 290 290 291 291 291 292 292 293 293 294 294 294 294 295 295 295 295 295 295 295 295 296 296 297 297 298 298 297 297 297 297 296 296
292 292 292 291 291 291 290 290 290 290 291 291 291 290 291 291 290 290 289 288 288 288 288 288 287 287 288 288 288 289 289 289 289 289 289 290 290 290 290 290 290 290 290 291 291 291 291 292 292 293 293 293 294 294 293 294 294 294 294 294 295 295 295 296 296 297 297 297 297 297 296 296 296 295
292 292 291 291 291 290 290 290 290 291 291 290 290 290 290 290 289 289 288 287 287 287 287 287 287 287 287 288 288 288 288 288 289 289 289 289 289 290 290 290 290 290 290 291 291 291 291 292 292 292 293 293 293 293 293 294 294 295 295 295 295 295 295 295 296 296 297 297 297 296 296 296 296 295
292 291 291 291 290 290 290 290 290 290 290 290 290 289 289 289 288 287 287 287 287 287 287 287 287 287 287 287 287 288 288 288 288 288 289 289 289 289 289 290 290 290 290 290 290 291 291 291 292 292 292 293 293 293 294 294 295 295 295 295 295 295 295 296 296 297 297 297 296 296 296 295 295 295
291 291 291 290 290 290 290 290 290 290 289 289 289 288 288 287 287 287 287 287 287 287 287 287 287 287 287 287 287 287 287 288 288 288 288 288 289 289 289 289 289 289 290 290 290 291 291 291 292 292 292 292 293 294 294 295 295 295 295 295 295 295 295 296 296 297 296 296 295 295 295 294 294 294
291 291 291 290 290 290 290 290 289 289 288 288 288 287 287 287 287 287 287 287 287 287 287 287 287 287 287 287 287 287 287 287 287 288 288 288 288 288 289 289 289 289 289 290 290 290 291 291 291 292 292 292 293 293 294 294 294 294 295 295 295 296 296 296 296 296 296 294 294 293 293 293 293 293
291 291 290 290 290 290 289 289 289 288 288 287 287 287 287 287 287 287 287 286 287 287 287 287 287 287 287 287 287 287 287 287 287 287 287 288 288 288 288 288 289 289 289 289 290 290 290 291 291 292 292 292 292 293 293 293 293 293 294 294 295 295 295 296 296 296 294 294 293 293 292 292 291 291
290 290 290 290 289 289 289 288 288 287 287 287 287 287 287 287 287 287 287 287 287 287 287 287 287 287 287 287 287 287 287 287 287 287 287 287 288 288 288 288 288 289 289 289 289 290 290 290 291 291 291 292 292 293 293 293 293 293 294 294 294 295 295 295 296 296 294 293 292 291 290 290 290 290
290 290 289 289 289 289 288 287 287 287 287 287 288 288 288 288 288 287 287 287 287 287 287 287 287 287 287 287 287 287 287 287 287 287 287 287 287 288 288 288 288 289 289 289 289 290 290 290 291 291 291 292 292 292 292 292 293 293 293 294 294 295 295 295 295 295 295 294 293 291 290 290 289 289
290 290 289 289 289 288 287 287 287 288 288 288 288 289 288 288 288 287 287 287 287 287 287 287 287 287 287 287 287 287 287 287 287 287 287 287 287 288 288 288 288 289 289 289 290 290 290 290 291 291 291 291 291 291 291 292 293 293 293 294 294 294 294 294 293 293 294 293 293 292 291 291 290 289
290 289 289 289 288 287 287 288 288 289 289 289 289 289 289 288 288 287 287 286 287 287 287 287 287 287 287 287 287 287 287 287 287 287 287 288 288 288 288 288 289 289 289 289 290 290 290 291 291 291 291 291 291 291 292 292 293 293 293 293 293 293 292 292 291 291 291 291 291 292 292 292 291 292
289 289 289 289 288 288 288 288 289 289 289 289 289 289 288 288 287 286 286 286 286 287 287 287 287 287 287 287 287 287 287 287 288 288 288 288 288 288 288 289 289 289 289 289 290 290 290 291 291 291 291 291 292 292 292 293 293 293 293 292 292 292 292 291 291 290 290 290 290 291 291 291 291 292
Wind_Speed
6 6 6 7 8 8 8 9 9 7 5 5 5 7 7 5 3 1 4 4 3 8 17 14 14 23 24 21 20 17 15 14 13 13 13 12 12 12 11 10 10 9 7 6 6 8 10 10 10 11 11 12 13 13 13 15 16 18 19 21 23 23 25 29 33 31 29 30 31 31 30 29 28 29
4 4 4 4 6 6 7 8 8 8 7 7 8 7 6 6 4 2 2 4 3 8 16 17 18 24 24 20 19 18 17 16 15 15 14 14 14 14 13 12 12 11 10 8 7 8 10 11 11 13 14 15 16 16 16 16 16 16 17 18 19 20 24 29 34 36 34 33 31 31 32 33 32 30
3 2 2 2 4 5 4 5 5 6 6 7 8 7 7 7 6 4 3 2 4 10 16 19 21 22 22 21 20 20 20 18 18 17 16 15 14 14 14 13 13 12 11 10 9 9 9 11 12 13 15 16 17 18 18 19 18 17 17 18 18 18 20 23 27 30 33 35 35 33 31 33 34 34
0 1 1 2 4 4 3 3 2 3 5 7 8 8 8 7 7 9 6 4 9 15 16 18 21 21 21 22 22 23 22 20 19 19 18 17 16 15 15 14 14 13 12 12 11 11 11 11 12 14 15 16 17 18 18 19 19 19 18 18 17 17 17 18 20 22 25 29 33 35 35 34 34 36
3 2 1 1 1 2 3 3 2 3 5 5 6 7 6 6 6 9 9 7 11 17 17 17 19 20 21 22 22 23 24 23 22 21 20 19 18 17 17 16 15 15 14 14 13 13 13 13 14 15 16 18 19 19 19 19 19 20 20 19 18 17 16 17 17 19 21 22 24 28 32 34 35 36
6 5 4 4 3 3 3 3 3 3 3 4 5 6 5 4 5 6 8 8 9 15 19 20 20 20 21 22 22 22 23 24 23 22 21 20 20 19 18 17 17 17 17 16 15 15 15 14 15 16 17 18 19 20 20 20 19 19 20 21 21 19 18 17 17 17 19 20 21 22 23 26 29 31
9 8 7 6 5 6 5 4 4 3 2 4 5 5 4 4 5 6 8 9 9 12 17 20 21 21 22 22 21 21 21 22 22 22 21 21 20 19 18 18 18 17 17 17 16 16 15 15 16 17 17 18 18 19 20 20 21 20 20 21 22 22 20 20 19 18 18 18 20 21 21 21 22 24
13 12 10 8 8 8 7 6 5 4 4 5 5 5 6 6 7 8 9 10 10 11 15 19 21 21 21 21 21 21 21 22 22 21 21 21 20 19 19 18 19 19 18 18 17 16 16 17 18 18 18 18 19 19 19 19 20 20 21 21 21 22 21 21 21 20 19 18 18 19 20 21 20 21
15 15 13 11 11 10 8 7 7 6 5 6 6 6 8 8 9 10 11 11 12 13 15 19 20 21 22 22 21 21 23 24 24 23 21 20 20 21 20 19 20 21 19 18 17 17 18 19 19 19 18 18 20 20 20 20 20 19 19 19 19 19 19 19 20 19 19 19 18 18 18 19 19 19
17 17 15 13 13 12 10 8 8 8 7 7 8 8 9 10 12 13 14 14 14 15 16 17 20 21 21 21 22 22 22 23 23 25 25 23 23 24 24 22 22 21 18 17 17 18 19 19 20 19 18 17 19 21 20 19 19 20 20 20 19 19 18 18 19 19 19 19 18 17 17 17 17 18
19 18 17 15 15 15 12 11 10 10 9 9 9 10 10 12 13 15 16 16 15 16 16 16 18 20 20 20 21 22 22 21 22 25 28 27 28 28 28 26 25 22 19 19 19 19 19 19 19 20 19 19 20 22 20 18 17 16 17 19 20 22 22 20 18 19 19 19 17 16 15 15 16 16
21 20 19 17 17 16 14 13 12 11 11 10 9 9 10 12 14 16 16 15 14 14 15 15 16 18 20 21 23 25 25 24 23 25 25 26 28 30 30 28 24 22 22 23 22 21 21 21 22 23 24 24 24 24 23 21 18 16 15 15 16 20 24 24 21 18 18 19 17 15 14 14 14 14
23 22 20 19 19 18 16 14 13 12 11 10 9 9 10 11 13 13 12 11 11 13 15 16 17 19 21 22 24 25 25 24 23 24 25 26 27 29 31 29 24 21 24 27 27 25 25 26 27 28 29 29 26 26 26 25 22 19 16 16 15 15 18 21 22 21 19 19 18 16 15 14 14 14
26 24 22 21 20 19 17 15 14 13 11 10 10 9 10 11 11 9 8 7 8 10 13 14 15 18 20 22 23 23 24 24 24 25 26 26 27 28 28 29 27 24 25 30 33 31 30 30 30 30 31 30 27 25 26 25 25 22 19 17 16 15 14 15 17 17 17 18 17 17 17 15 14 13
28 25 24 23 22 21 18 16 14 12 11 10 10 10 11 11 10 8 6 6 6 8 9 11 13 14 17 21 22 22 23 24 25 26 26 25 24 23 20 22 25 26 28 31 34 34 31 29 28 28 29 29 27 25 24 24 23 23 21 18 16 16 15 14 13 13 13 14 15 16 16 14 13 12
28 27 27 25 23 21 18 16 14 12 11 11 11 12 12 11 10 9 8 7 7 8 9 11 13 14 16 19 21 21 22 24 25 26 26 24 24 22 19 19 23 28 31 33 33 33 30 26 25 26 26 26 25 24 24 23 23 23 21 18 16 15 15 15 14 14 13 13 14 15 14 13 12 12
28 29 28 25 23 20 16 15 13 12 13 13 13 13 13 11 10 10 10 10 9 9 10 12 14 15 16 18 19 20 20 21 23 24 25 25 24 24 23 24 27 31 33 32 30 30 29 26 24 25 25 23 22 23 24 24 23 22 20 17 16 15 15 15 14 14 14 13 13 13 13 13 13 13
29 30 29 26 24 20 17 15 13 13 13 13 14 14 13 12 11 11 11 11 11 11 12 14 16 16 16 17 19 19 17 17 18 20 22 23 24 26 27 29 31 32 29 26 25 24 24 24 24 24 25 23 22 23 23 23 23 22 20 17 14 13 13 13 13 12 13 13 13 14 14 15 15 15
26 27 27 22 17 14 14 14 12 12 13 13 14 14 13 13 13 12 12 12 12 12 12 13 15 16 16 17 17 17 16 16 16 18 20 22 25 28 30 32 33 31 26 22 20 19 20 22 24 26 27 25 23 22 22 21 21 20 18 15 11 10 10 10 10 10 10 11 12 13 14 15 16 17
20 20 19 15 10 10 13 12 11 11 12 12 14 15 15 15 14 13 12 12 12 12 13 13 14 15 16 16 17 17 18 19 20 23 25 26 27 27 27 28 30 30 27 21 18 20 23 24 25 26 24 21 20 20 18 17 16 15 13 11 8 8 8 7 8 8 9 10 11 12 14 15 16 17
15 13 11 10 9 10 11 11 10 10 11 13 15 15 15 15 13 12 12 12 12 11 12 12 13 15 17 19 21 22 24 25 26 27 27 26 25 24 21 21 24 28 28 24 21 24 24 21 21 22 19 16 15 15 12 10 8 8 8 8 7 8 8 8 9 10 10 11 12 13 14 15 16 17
13 11 8 8 10 10 9 9 9 9 10 12 12 12 12 11 10 10 11 12 13 14 15 17 18 20 22 24 26 27 27 27 26 25 24 24 23 22 19 19 22 25 25 23 21 21 19 16 18 21 20 16 14 12 8 5 5 6 7 8 9 9 9 10 11 12 12 12 12 12 13 14 15 15
11 10 10 9 10 10 9 8 9 9 9 9 9 8 8 9 10 11 13 15 16 18 19 20 21 21 21 21 22 21 20 19 18 18 20 21 22 23 22 21 19 16 14 14 15 17 19 18 18 20 17 12 9 10 7 5 7 9 10 12 12 10 10 11 13 14 15 16 15 15 14 14 14 14
11 11 10 9 9 8 8 7 7 6 6 6 6 7 9 10 12 13 14 15 15 16 17 17 18 18 18 18 18 17 16 15 15 16 18 19 21 23 24 23 20 16 16 17 17 19 21 19 17 19 17 12 10 12 13 13 12 11 13 14 12 9 10 13 15 16 17 18 18 18 18 17 15 13
9 9 8 7 6 6 5 4 3 3 4 6 8 9 10 10 10 11 12 13 13 14 15 16 17 18 18 18 19 18 18 17 16 18 19 19 20 22 24 25 24 23 24 22 20 21 22 20 19 19 19 18 17 17 18 18 17 16 17 15 11 9 11 13 14 16 16 17 18 20 20 19 17 14
8 7 7 6 6 4 3 3 4 6 8 9 10 10 9 8 9 9 10 11 13 14 15 17 18 18 19 20 20 20 20 19 19 21 22 21 21 23 24 26 26 26 27 25 23 23 25 23 21 19 18 18 18 18 18 17 18 19 18 15 12 11 11 11 12 14 14 14 17 20 22 20 17 14
6 7 7 6 5 4 4 5 7 9 10 9 8 7 7 7 8 9 10 11 13 14 16 18 19 20 21 21 22 22 22 22 21 22 23 23 23 24 25 26 28 29 30 28 26 25 26 25 23 21 20 19 18 16 16 16 17 17 16 15 14 13 12 11 11 10 11 14 17 18 18 17 15 13
6 6 6 4 4 4 5 7 8 9 8 7 6 6 7 7 8 9 10 12 14 16 17 19 21 22 22 23 23 23 23 23 23 24 24 24 25 26 26 27 28 29 29 29 27 27 27 28 27 25 24 23 20 17 16 16 17 17 17 17 16 15 13 11 10 10 13 15 15 14 14 15 14 14
4 4 3 2 3 5 7 7 7 6 6 6 6 6 6 7 8 10 12 15 16 17 19 20 21 23 23 24 25 25 25 26 26 26 26 25 25 25 26 27 28 28 28 28 27 26 27 28 28 27 26 26 24 21 19 18 18 18 18 18 18 17 15 13 13 14 15 13 13 15 17 18 15 13
2 1 2 3 4 4 4 4 4 4 5 5 6 6 7 9 11 13 15 17 18 19 20 22 23 25 26 27 27 28 28 27 27 26 26 26 25 25 25 26 27 27 27 27 27 26 27 27 28 27 27 26 25 24 22 20 19 19 19 20 20 17 14 13 14 14 13 13 15 17 19 19 16 12
3 3 3 3 1 1 2 3 4 6 6 7 7 8 10 12 13 15 16 17 19 21 23 25 26 28 29 29 29 29 29 29 29 28 28 27 27 26 25 25 25 25 26 27 27 27 27 27 27 27 26 26 25 24 24 22 21 20 20 21 21 18 15 15 15 16 16 16 17 17 18 17 14 11
3 2 1 1 2 2 3 5 7 8 8 9 10 11 13 14 15 17 18 19 21 24 26 28 28 29 29 29 29 29 29 29 29 29 28 28 28 27 26 24 23 23 24 25 26 27 27 26 26 27 26 26 25 25 24 23 22 21 20 21 21 20 19 18 17 18 18 17 17 19 19 15 12 11
2 2 3 3 4 6 8 10 11 11 11 12 13 14 16 17 19 19 20 21 24 26 27 27 27 27 27 27 27 27 27 27 28 28 28 27 27 27 25 23 23 23 23 25 26 27 27 26 26 26 26 26 26 25 23 21 20 20 20 20 21 21 22 21 19 19 18 17 18 20 19 14 11 11
3 4 4 6 8 9 11 12 12 13 14 15 17 18 19 19 20 20 22 24 25 27 27 26 26 26 26 26 25 25 25 26 26 26 27 27 26 25 23 23 23 23 24 24 25 25 25 25 24 24 25 25 25 25 24 21 21 23 24 23 22 23 23 23 21 20 20 19 19 19 17 14 11 11
4 6 7 8 10 10 11 12 13 14 15 17 18 20 20 20 20 21 23 26 27 27 27 26 25 24 24 24 24 24 25 25 26 26 25 25 24 24 23 23 23 23 23 23 23 24 24 23 21 21 21 21 21 23 25 25 24 26 27 25 24 24 24 24 22 21 20 20 19 18 16 14 12 11
6 7 8 9 10 10 11 12 13 14 16 17 19 20 20 20 21 22 25 26 27 26 26 25 24 24 24 24 25 25 25 26 25 25 24 24 23 23 23 23 23 23 23 23 23 23 23 22 20 18 15 12 10 12 17 20 21 21 23 24 23 22 23 23 22 21 21 21 20 19 17 15 13 12
6 7 7 8 9 9 11 12 13 15 17 18 19 19 19 21 23 25 27 27 27 27 25 25 25 25 25 25 26 26 25 25 25 24 24 23 23 23 22 23 23 23 23 23 24 23 22 21 20 18 13 8 6 7 10 14 15 15 16 19 20 18 18 19 19 20 21 21 22 21 19 15 12 11
5 6 6 7 8 9 10 12 14 16 18 19 20 21 21 23 25 26 27 27 27 26 26 25 26 26 26 26 26 26 25 25 24 24 23 23 22 22 21 22 22 22 23 24 23 23 22 21 21 20 15 9 5 5 6 8 9 9 11 14 17 16 16 17 18 20 20 20 20 19 16 13 10 10
4 5 5 6 8 10 11 13 15 17 19 20 20 21 22 24 26 27 28 27 27 26 26 26 26 27 27 27 26 26 25 24 24 23 23 22 22 22 22 22 22 22 22 22 22 22 22 22 22 22 20 16 13 12 12 11 11 12 13 13 15 16 15 16 18 20 18 17 16 15 12 10 10 10
4 4 5 7 9 11 13 14 16 17 17 18 19 20 22 25 27 28 28 28 27 27 27 27 27 27 27 27 26 25 25 25 24 24 24 23 23 23 23 23 23 22 21 21 21 20 21 22 23 23 23 23 22 22 21 19 18 19 19 16 15 16 16 15 17 18 18 18 18 16 15 14 13 11
3 4 6 8 10 11 13 13 14 14 15 16 19 22 25 27 29 29 28 27 27 28 27 28 28 27 27 27 26 25 24 24 24 24 23 23 24 24 24 24 24 22 21 20 19 20 22 24 24 23 23 23 22 20 16 12 12 16 19 17 14 15 14 14 17 19 19 20 20 19 16 15 15 14
3 5 7 8 10 11 10 11 11 13 16 19 23 26 28 30 30 29 28 28 28 28 27 28 28 27 27 27 26 25 24 24 24 24 24 23 23 23 23 23 22 22 21 20 21 23 25 24 23 21 20 20 20 16 10 8 10 13 14 12 10 11 11 10 13 17 19 18 20 19 17 14 13 12
3 5 7 8 9 8 9 10 12 15 19 22 25 28 30 30 31 30 29 28 29 28 28 28 28 27 27 27 26 25 24 24 24 24 23 23 23 23 23 22 22 22 22 22 23 25 25 23 22 21 19 19 19 16 12 12 13 13 11 8 7 5 4 3 7 13 15 17 19 20 19 17 12 10
3 5 7 8 8 8 9 12 14 17 21 25 27 29 29 29 29 29 28 28 28 28 28 28 28 27 27 27 26 25 24 24 23 23 24 23 23 23 23 24 24 23 22 22 22 22 22 22 21 20 18 18 18 17 15 15 14 12 11 10 8 8 8 8 11 14 15 17 17 17 18 19 14 10
3 4 6 7 7 8 10 13 16 20 24 26 28 29 29 29 28 28 28 27 27 28 28 28 28 28 28 27 26 25 25 25 24 23 23 24 23 23 24 24 24 22 22 20 19 18 19 19 18 16 16 17 17 17 17 16 13 11 12 13 14 14 13 14 16 17 15 13 12 12 14 16 11 6
Wind_Direction
89 86 76 51 49 59 60 56 56 59 55 43 31 24 37 53 49 19 342 327 287 349 359 352 342 352 359 1 2 4 2 357 351 348 348 346 343 338 335 334 330 326 318 303 294 292 292 298 305 309 308 303 300 297 291 286 283 281 278 275 271 268 267 259 247 243 243 244 242 235 230 234 236 236
87 82 80 56 47 55 58 58 60 55 45 33 26 20 22 29 37 60 339 313 293 335 347 346 343 347 354 1 3 4 2 357 351 346 341 337 338 337 334 331 326 323 318 307 295 285 282 287 297 305 307 306 303 299 295 291 288 286 283 280 277 273 270 263 250 244 248 252 250 239 232 234 236 238
77 90 113 78 47 40 43 55 54 41 27 13 10 10 7 9 8 1 351 312 306 325 333 337 340 343 346 352 354 352 352 353 352 351 347 343 342 343 344 342 336 329 323 316 307 297 290 288 292 297 300 302 303 302 298 293 288 286 283 282 280 276 274 271 262 254 253 255 253 246 240 236 235 238
311 136 154 97 48 29 15 26 37 17 3 352 350 350 345 350 349 339 334 299 299 317 329 333 336 339 341 344 348 348 348 351 353 353 354 352 350 349 349 349 347 342 336 330 322 313 307 303 301 301 301 302 304 304 303 297 290 285 283 283 282 279 277 277 276 272 268 265 259 251 244 238 235 238
260 230 215 226 6 359 351 352 332 331 349 356 357 356 347 345 342 331 329 315 306 317 328 331 333 339 341 342 347 349 348 349 351 351 352 352 352 352 351 347 346 344 341 337 333 327 321 315 310 306 304 302 300 301 301 299 294 287 282 282 283 284 283 281 281 279 279 280 274 262 250 242 238 239
262 258 258 259 263 274 298 329 319 308 337 356 357 2 4 358 356 350 346 340 322 320 326 329 333 338 341 342 345 348 348 348 348 347 348 349 348 347 347 346 343 343 342 340 338 335 332 328 324 318 312 308 302 299 298 297 294 289 283 280 279 281 285 287 286 284 282 283 283 278 268 257 250 249
256 259 262 263 265 264 263 288 310 301 311 337 341 346 354 353 352 355 351 346 338 325 324 328 332 336 339 341 342 344 343 345 347 346 346 346 346 347 349 348 345 345 348 348 346 344 342 338 335 331 326 322 315 306 300 297 293 289 284 280 277 277 281 286 287 287 287 286 283 280 277 272 266 263
248 251 253 256 261 264 261 271 293 295 300 317 322 321 324 327 327 329 331 335 338 333 327 327 329 332 334 335 338 339 338 339 343 344 343 344 346 348 352 351 346 344 345 346 346 345 344 340 337 335 334 333 329 319 308 301 296 291 285 280 278 278 281 286 288 288 288 287 286 282 277 275 271 267
244 245 248 251 251 254 256 263 278 283 284 299 303 302 307 312 317 321 323 327 330 330 330 329 327 328 330 330 332 337 340 340 339 336 336 339 342 342 343 345 345 344 342 341 342 340 338 336 334 335 338 340 339 332 319 308 302 298 292 283 277 278 282 288 290 290 290 288 285 281 277 275 273 269
243 241 243 246 243 241 243 247 257 263 265 276 285 291 301 308 314 319 321 324 325 326 329 330 328 329 333 335 334 339 344 344 343 341 336 333 336 339 338 339 343 345 342 337 335 335 336 336 334 333 334 338 343 342 335 320 307 301 295 285 274 271 275 285 290 291 293 292 287 281 277 274 273 271
243 240 239 238 232 230 231 231 236 244 252 262 274 285 297 305 311 316 318 319 322 326 331 335 335 335 339 343 343 343 345 344 347 351 347 338 337 338 337 337 340 339 333 327 322 322 325 328 334 336 332 330 335 339 341 337 329 319 307 292 278 269 267 273 283 291 296 297 292 283 277 274 272 272
242 238 237 234 226 221 221 223 228 236 244 255 266 278 289 298 307 312 314 317 323 329 334 340 343 341 341 345 346 346 349 348 346 349 349 343 340 338 334 333 337 337 331 327 323 319 318 319 325 333 333 330 331 332 332 333 336 341 337 319 296 279 272 270 274 283 292 298 296 286 278 275 272 271
238 235 234 229 222 218 217 220 227 234 243 254 260 268 281 296 306 309 311 319 328 334 338 341 344 342 340 343 343 342 345 345 339 338 340 339 339 338 332 329 333 337 333 331 327 323 323 323 322 326 329 331 332 333 331 327 326 331 338 337 326 307 290 281 278 279 283 290 292 287 280 277 275 273
233 230 228 222 218 217 218 222 229 234 242 252 255 264 280 294 301 302 305 319 332 335 335 336 338 335 331 333 337 335 335 335 333 333 336 336 335 336 333 327 329 334 335 334 330 324 323 325 322 321 324 326 329 333 333 329 324 321 321 326 329 324 314 300 289 282 280 281 283 283 281 280 279 276
226 222 220 218 217 218 221 225 230 235 241 247 252 265 281 289 292 291 290 299 310 316 316 318 322 321 318 323 329 331 332 332 330 329 330 331 331 334 333 324 321 326 331 332 328 322 322 326 324 321 321 322 324 328 329 326 323 320 315 314 318 319 316 311 303 295 287 282 281 280 279 277 276 278
221 219 217 216 216 218 221 226 230 234 239 245 255 268 278 283 285 286 283 283 288 293 296 302 307 309 311 318 325 330 331 328 325 323 324 325 326 325 321 313 310 316 323 325 320 316 319 324 324 319 318 319 320 320 319 320 321 319 314 308 308 311 311 309 307 304 298 293 289 284 280 277 276 279
220 219 216 212 210 209 218 230 234 235 240 245 254 264 271 274 277 279 279 279 281 285 289 294 300 308 312 314 318 324 325 321 319 319 319 319 320 317 312 307 306 310 316 318 312 308 312 318 320 316 316 319 318 314 314 318 319 318 314 308 302 301 301 302 303 302 298 294 290 286 283 281 281 281
223 220 216 211 207 208 220 233 235 235 240 247 255 261 265 268 271 271 272 274 278 285 292 295 300 307 309 307 308 311 312 312 314 315 316 316 316 312 308 305 306 307 312 314 308 301 307 316 318 314 315 316 314 314 316 316 315 315 315 311 304 296 293 293 295 294 293 291 288 286 285 285 286 287
222 218 213 210 210 218 228 232 235 239 245 252 257 259 262 264 266 265 265 268 272 279 286 289 293 298 299 299 300 302 302 304 304 305 307 307 307 306 304 303 303 304 308 312 306 299 306 316 314 310 311 312 309 310 313 313 313 315 318 318 312 303 299 298 297 294 291 288 285 284 284 285 288 289
213 212 213 215 220 228 226 225 232 240 246 251 254 255 257 257 255 253 254 258 262 266 272 278 284 288 290 293 296 297 299 300 302 303 302 302 303 304 302 300 299 300 303 306 303 301 306 309 306 306 311 315 311 308 307 308 312 315 321 328 331 326 323 320 316 311 307 302 299 296 294 294 294 293
195 196 208 214 210 213 217 220 230 236 239 244 246 246 246 243 239 239 244 252 257 261 267 273 279 283 287 290 292 295 297 298 302 305 304 304 306 304 299 295 295 296 297 298 298 296 296 300 306 311 319 325 322 318 315 314 319 329 341 349 350 349 349 347 342 335 325 318 313 309 306 304 301 300
178 183 196 209 215 223 230 236 245 247 242 237 233 232 232 234 241 250 259 267 271 274 277 280 282 285 288 290 292 295 297 297 299 301 303 306 307 301 293 292 295 296 296 298 297 291 290 299 309 313 316 317 316 319 324 334 341 345 353 357 354 351 349 350 352 351 344 336 326 318 313 309 306 305
196 207 219 226 230 236 241 245 252 251 241 232 229 235 250 265 277 284 290 293 294 294 294 295 296 296 297 299 302 305 307 308 308 305 305 306 304 297 292 293 297 297 298 305 304 295 295 301 304 305 308 312 312 309 306 321 331 325 323 327 332 337 341 343 346 347 346 344 339 332 326 318 312 307
209 214 219 221 224 232 238 241 243 241 238 245 257 273 286 294 299 301 303 305 307 309 309 310 311 311 311 311 310 310 312 313 313 310 307 305 301 297 293 291 288 283 287 300 304 297 295 297 296 296 294 290 291 292 289 295 304 310 314 312 309 316 328 331 333 335 337 339 338 338 338 333 326 319
198 195 198 202 204 210 215 218 234 260 283 293 296 300 303 307 310 311 312 315 316 317 317 317 316 315 313 311 308 306 303 303 305 306 304 300 298 296 293 290 286 281 286 295 298 294 293 294 293 291 287 280 279 283 287 287 285 292 301 294 282 294 314 319 324 327 328 330 330 332 335 337 336 334
185 181 180 182 183 190 213 256 291 301 302 303 304 307 309 314 317 317 317 319 319 318 318 317 315 315 314 313 310 306 301 299 301 303 301 296 292 291 290 289 286 283 287 294 294 290 288 288 287 285 283 280 279 281 283 281 282 291 291 272 262 283 299 304 312 315 316 321 323 322 324 330 338 342
180 177 176 184 200 227 262 289 301 305 303 301 302 307 310 312 313 311 313 316 317 315 314 312 311 312 313 312 310 307 303 301 301 302 301 298 293 289 286 286 285 285 287 291 292 287 282 280 280 280 279 279 281 280 278 277 282 287 279 265 266 279 285 291 300 301 305 312 311 309 314 323 333 339
174 176 186 205 233 262 289 300 305 306 301 293 291 297 301 305 307 310 313 316 314 311 309 308 308 309 311 309 307 306 305 304 302 301 298 296 293 290 287 286 285 286 286 287 286 284 280 277 276 276 275 275 275 274 274 276 278 278 275 272 271 273 275 280 286 293 302 304 301 302 313 320 325 329
174 178 200 250 286 299 303 305 307 307 299 290 289 293 298 308 316 319 318 316 312 307 305 306 306 306 308 308 307 306 305 302 300 298 295 293 292 290 289 287 286 286 286 285 284 282 279 276 274 273 271 270 268 267 269 273 274 274 276 276 274 276 277 273 278 290 298 299 298 306 311 310 311 316
189 218 283 302 305 306 310 317 325 330 328 322 318 317 319 323 326 325 323 319 314 310 309 310 309 309 310 309 307 306 303 299 297 296 293 292 290 289 289 288 286 285 284 283 282 281 278 276 274 272 269 267 265 265 267 271 273 274 275 276 278 282 278 271 276 285 288 291 295 299 299 299 300 306
258 280 293 304 314 358 18 10 1 356 350 342 336 330 327 326 326 325 324 321 318 317 318 317 314 313 311 308 304 302 299 296 296 296 294 291 289 289 289 286 284 285 284 283 281 280 277 275 273 271 269 266 265 265 266 268 270 272 273 275 277 278 275 274 276 278 282 288 292 292 292 292 293 297
275 270 251 133 105 63 19 4 357 351 343 338 334 330 328 327 325 324 322 320 320 322 321 319 315 312 309 305 301 299 297 295 295 297 296 292 290 289 288 283 282 284 285 283 282 280 278 276 275 273 271 267 266 267 266 265 266 269 272 275 277 279 280 279 277 278 281 282 284 287 287 283 281 285
193 155 123 78 37 15 3 356 352 348 343 339 335 332 331 329 327 325 324 323 324 324 321 316 312 309 306 303 300 298 295 293 293 295 294 292 290 289 285 279 279 282 282 281 281 281 280 278 277 275 274 273 272 270 267 265 265 268 271 275 277 279 279 276 274 274 272 269 274 280 277 269 269 273
131 103 67 37 21 12 4 360 356 351 346 342 337 335 333 330 327 326 326 326 325 323 318 313 309 306 304 301 299 296 293 291 292 292 290 289 288 285 281 278 278 279 278 277 279 280 281 280 278 276 275 275 276 274 270 266 267 270 273 275 274 273 273 272 269 266 261 260 265 266 261 259 262 259
93 60 40 27 15 7 2 359 355 350 346 343 340 337 333 329 327 326 326 325 323 318 314 310 307 304 302 300 298 296 293 292 292 290 289 287 284 281 278 276 276 275 275 274 275 277 279 279 278 275 272 271 273 274 270 265 264 267 269 269 267 266 267 269 267 261 256 255 254 248 246 251 252 249
71 43 28 19 10 3 360 357 354 350 347 343 341 337 332 328 325 324 322 321 319 315 312 310 307 304 301 299 298 296 294 293 291 289 287 285 282 279 277 275 274 274 274 272 272 274 275 274 272 269 266 265 266 269 270 268 265 262 261 262 264 265 267 269 267 259 252 249 244 236 236 244 245 240
61 36 21 14 8 3 360 356 351 348 345 342 339 336 330 326 325 324 323 322 320 318 316 312 307 304 301 299 297 295 293 291 289 287 285 283 280 278 276 275 275 274 273 272 272 272 270 268 264 259 255 257 255 256 269 274 268 258 255 258 261 263 265 264 259 251 247 244 239 233 232 238 238 229
50 32 22 15 9 3 358 354 350 347 344 342 340 337 334 332 329 327 325 324 322 320 316 311 306 303 301 299 296 294 292 290 287 284 282 281 279 276 274 273 273 273 272 272 272 270 265 262 258 254 250 250 254 259 272 272 257 246 251 255 255 258 262 257 250 245 240 233 227 226 227 226 221 213
46 35 26 16 9 2 358 356 352 348 345 343 342 340 336 333 329 326 324 322 319 315 312 308 306 304 302 299 296 293 291 289 287 285 283 281 278 275 274 272 271 272 272 271 270 268 263 257 253 250 247 246 250 257 264 268 268 271 272 264 256 258 262 257 248 241 231 217 208 204 199 196 195 197
47 33 20 12 7 3 359 355 350 346 345 344 341 335 330 325 323 321 320 317 314 312 310 309 308 306 304 302 299 296 292 289 287 285 283 281 278 275 273 272 271 270 270 268 267 265 259 254 254 253 251 252 257 261 264 268 273 275 274 268 263 263 266 266 257 240 219 203 195 182 169 165 168 173
28 19 15 10 5 0 356 352 350 349 346 340 332 326 323 320 318 316 315 313 313 312 311 311 310 309 306 304 302 298 293 290 289 286 284 282 279 276 274 272 270 268 266 265 263 262 260 261 264 263 259 258 258 260 264 264 263 266 267 266 264 261 262 267 262 243 218 198 184 167 155 158 161 160
17 21 18 9 3 1 0 2 360 350 338 330 325 322 320 318 316 315 314 315 316 315 314 313 312 310 308 307 306 302 296 292 290 289 286 283 280 278 276 272 267 265 263 261 262 264 266 269 270 266 260 255 252 251 251 244 243 253 260 258 254 256 262 265 254 241 228 210 189 170 155 152 151 151
28 26 17 8 7 12 14 7 354 338 328 325 324 323 321 318 317 316 316 316 317 316 315 314 314 313 312 311 310 306 300 296 293 292 289 286 282 279 277 273 270 267 264 262 264 268 269 270 269 263 255 250 246 242 238 237 240 243 241 229 220 229 246 234 211 211 210 204 196 188 178 169 164 173
40 23 14 12 17 21 11 356 341 331 328 328 327 326 324 321 318 318 317 317 316 317 317 317 317 317 317 316 314 311 307 304 302 298 295 292 288 284 281 279 277 274 269 266 265 266 266 267 267 262 253 245 241 236 231 234 239 236 220 200 174 157 151 150 160 169 173 179 188 194 192 186 187 202
35 19 17 19 18 11 357 344 336 333 334 333 331 330 328 325 322 320 319 318 319 320 320 321 321 322 321 320 317 315 314 313 311 306 302 299 296 291 288 286 282 277 274 270 265 263 264 266 266 260 249 240 237 234 230 233 237 224 197 175 159 153 153 153 153 152 152 161 179 193 198 198 204 224